Winter Haven, FL

10:18 PM EST on February 25, 2017 (GMT -0500)
Winter Haven's-Gilbert

Weather History for KGIF - October, 2013

Change the Weather History Date:

Monday, October 21, 2013

  Actual Average Record
Temperature  
Mean Temperature 81 °F -  
Max Temperature 89 °F 84 °F 92 °F (1993)
Min Temperature 73 °F 63 °F 44 °F (1989)
Cooling Degree Days 16    
Growing Degree Days 31 (Base 50)    
Moisture  
Dew Point 71 °F    
Average Humidity 82    
Maximum Humidity 94    
Minimum Humidity 52    
Precipitation  
Precipitation 0.00 in - - ()
Sea Level Pressure  
Sea Level Pressure 29.98 in    
Wind  
Wind Speed 4 mph (North)    
Max Wind Speed 8 mph    
Max Gust Speed -    
Visibility 9 miles    
Events      
Averages and records for this station are not official NWS values.
T = Trace of Precipitation, MM = Missing Value Source: NWS Daily Summary

Daily Weather History Graph

Daily Weather History Graph

Search for Another Location

Airport or City:

Trip Planner

Search our weather history database for the weather conditions in past years. The results will help you decide how hot, cold, wet, or windy it might be!

Date:

Astronomy

Oct. 21, 2013 Rise Set
Actual Time 7:31 AM EDT 6:51 PM EDT
Civil Twilight 7:07 AM EDT 7:15 PM EDT
Nautical Twilight 6:39 AM EDT 7:42 PM EDT
Astronomical Twilight 6:12 AM EDT 8:10 PM EDT
Moon 8:55 PM EDT (10/21) 9:53 AM EDT (10/21)
Length of Visible Light 12h 08m
Length of Day
11h 20m
Waning Gibbous, 93% of the Moon is Illuminated
Oct 21
Waning Gibbous
Oct 26
Last Quarter
Nov 3
New
Nov 10
First Quarter
Nov 17
Full

Hourly Weather History & Observations

Time (EDT) Temp. Heat Index Dew Point Humidity Pressure Visibility Wind Dir Wind Speed Gust Speed Precip Events Conditions
12:36 AM 75.0 °F - 72.0 °F 90% 29.99 in 10.0 mi NE 3.5 mph - N/A   Mostly Cloudy
12:53 AM 73.9 °F - 71.1 °F 91% 29.98 in 10.0 mi NNE 4.6 mph - N/A   Mostly Cloudy
1:00 AM 73.9 °F - 71.1 °F 91% 29.99 in 10.0 mi NNE 3.5 mph - N/A   Scattered Clouds
1:53 AM 73.9 °F - 71.1 °F 91% 29.98 in 10.0 mi NE 4.6 mph - N/A   Mostly Cloudy
2:39 AM 73.9 °F - 71.1 °F 91% 29.98 in 10.0 mi Calm Calm - N/A   Mostly Cloudy
2:53 AM 73.9 °F - 71.1 °F 91% 29.97 in 10.0 mi NNE 3.5 mph - N/A   Overcast
3:53 AM 73.0 °F - 70.0 °F 90% 29.96 in 10.0 mi NNE 3.5 mph - N/A   Clear
4:53 AM 73.0 °F - 70.0 °F 90% 29.96 in 10.0 mi NE 5.8 mph - N/A   Clear
5:53 AM 73.0 °F - 71.1 °F 93% 29.97 in 10.0 mi East 4.6 mph - N/A   Clear
6:27 AM 73.0 °F - 71.1 °F 93% 29.99 in 8.0 mi NE 4.6 mph - N/A   Mostly Cloudy
6:53 AM 73.0 °F - 71.1 °F 93% 29.99 in 8.0 mi Calm Calm - N/A   Mostly Cloudy
7:03 AM 73.0 °F - 71.1 °F 93% 29.99 in 7.0 mi Calm Calm - N/A   Scattered Clouds
7:14 AM 73.0 °F - 71.1 °F 93% 29.99 in 8.0 mi East 3.5 mph - N/A   Scattered Clouds
7:33 AM 73.0 °F - 71.1 °F 93% 30.00 in 7.0 mi Calm Calm - N/A   Mostly Cloudy
7:53 AM 73.9 °F - 72.0 °F 93% 30.00 in 7.0 mi Calm Calm - N/A   Overcast
8:00 AM 73.9 °F - 72.0 °F 93% 30.01 in 7.0 mi Calm Calm - N/A   Overcast
8:53 AM 75.0 °F - 73.0 °F 94% 30.01 in 7.0 mi Calm Calm - N/A   Overcast
9:49 AM 75.2 °F - 73.4 °F 94% 30.03 in 7.0 mi South 3.5 mph - N/A   Mostly Cloudy
9:53 AM 77.0 °F - 73.0 °F 88% 30.02 in 7.0 mi SSW 4.6 mph - N/A   Mostly Cloudy
10:01 AM 77.0 °F - 73.0 °F 88% 30.03 in 8.0 mi Calm Calm - N/A   Scattered Clouds
10:53 AM 81.0 °F 86.2 °F 73.9 °F 79% 30.02 in 10.0 mi Calm Calm - N/A   Partly Cloudy
11:53 AM 84.9 °F 91.4 °F 73.0 °F 67% 30.02 in 10.0 mi South 4.6 mph - N/A   Clear
12:53 PM 87.1 °F 92.8 °F 71.1 °F 59% 30.00 in 10.0 mi West 5.8 mph - N/A   Scattered Clouds
1:53 PM 86.0 °F 91.5 °F 71.1 °F 61% 29.97 in 10.0 mi SSW 8.1 mph - N/A   Mostly Cloudy
2:53 PM 89.1 °F 93.7 °F 69.1 °F 52% 29.95 in 10.0 mi Variable 6.9 mph - N/A   Scattered Clouds
3:53 PM 87.1 °F 92.0 °F 70.0 °F 57% 29.94 in 10.0 mi West 5.8 mph - N/A   Mostly Cloudy
4:53 PM 88.0 °F 92.1 °F 69.1 °F 53% 29.93 in 10.0 mi WNW 8.1 mph - N/A   Partly Cloudy
5:53 PM 87.1 °F 91.3 °F 69.1 °F 55% 29.94 in 10.0 mi West 6.9 mph - N/A   Clear
6:53 PM 84.0 °F 87.8 °F 69.1 °F 61% 29.94 in 10.0 mi NW 4.6 mph - N/A   Clear
7:53 PM 81.0 °F 84.4 °F 70.0 °F 69% 29.96 in 9.0 mi WNW 3.5 mph - N/A   Clear
8:53 PM 79.0 °F - 71.1 °F 77% 29.97 in 10.0 mi WNW 6.9 mph - N/A   Clear
9:53 PM 78.1 °F - 72.0 °F 81% 29.98 in 10.0 mi North 4.6 mph - N/A   Clear
10:53 PM 75.9 °F - 72.0 °F 87% 29.98 in 10.0 mi NNE 4.6 mph - N/A   Clear
11:53 PM 75.0 °F - 72.0 °F 90% 29.97 in 10.0 mi NNE 4.6 mph - N/A   Clear